KINEIS-1C

Satellite information

Favourite Embed

Satellite Type and Status

PAYLOADIN ORBIT

Key statistics

Satellite KINEIS-1C at a glance.

Uptime

444

Days in orbit

Revolutions

≈ 14.8

Per day

Orbit

SSO

Sun Synchronous Orbit

Inclination

98.0

Latest

Satellite identification and parameters

Extended collection of information and parameters for KINEIS-1C.

Object identification

Identified? True

Debris? False

Object name: KINEIS-1C

International designator: 2024-114C

Object number (NORAD): 60081

Object ID (CCSDS): 60081

Country: FRANCE (FR)

Current information (Y/N): Y

RCS size: MEDIUM

Orbital parameters

Period: 97.307 minutes

Inclination: 98.0092 deg

SMA: 7007.935 km

Apoapsis: 631.328 km

Periapsis: 628.273 km

RAAN: 270.1062 deg

Eccentricy: 0.00021797

Argument of periapsis: 65.1045 deg

Mean anomaly: 295.0393 deg

Mean motion: 14.79849769 rev/day

Mean motion (dot): 0.0000283 rev/day2

B* drag term: 0.00038241182 1/REarth

Two-line elements (TLE)

Creation date: Sept. 7, 2025, 3:09 a.m.

Reference frame: TEME

Reference center: EARTH

Epoch: Sept. 6, 2025, 11:50 p.m. UTC

TLE line 0: 0 KINEIS-1C

TLE line 1: 1 60081U 24114C 25249.99361611 .00002830 00000-0 38241-3 0 9999

TLE line 2: 2 60081 98.0092 270.1062 0002180 65.1045 295.0393 14.79849769 65483

Live tracking on map

Real-time ground track for satellite KINEIS-1C.

In-orbit conjunctions

There are no conjunctions computed for KINEIS-1C, at the moment. Check back to stay up to date, as we update our databases every day.

Go to all conjunctions

Associated space launch

First batch of five satellites for the French Kinéis IoT constellation designed to operate with 25 nanosatellites of 30 kg each.

KINEIS-1C was lifted into orbit during the mission ‘Electron | No Time Toulouse (Kinéis 1-5)’, on board a Electron space rocket.

The launch took place on June 20, 2024, 6:13 p.m. from Rocket Lab Launch Complex 1B.

For more information about the launch, click the button.

Launch to space Electron | No Time Toulouse (Kinéis 1-5)
Electron | No Time Toulouse (Kinéis 1-5)

Agency: Kinéis

Status: Launch Successful

Launch date: June 20, 2024, 6:13 p.m. UTC

Rocket: Electron

Launch pad: Rocket Lab Launch Complex 1B

Location: Rocket Lab Launch Complex 1, Mahia Peninsula, New Zealand

...

Latest news about this satellite

News about space launch
Rocket Report: Electron turns 50, China’s Moon launcher breathes fire

"Most rocket startups are still stuck in the long process of reengineering."

News about space launch
Rocket Lab launches first Kinéis satellites on 50th Electron

Rocket Lab successfully launched the first set of satellites for a French startup June 20 on the 50th flight of its Electron rocket.

News about space launch
Rocket Lab successfully launches its 50th Electron rocket

Rocket Lab's Electron rocket made history by reaching its 50th launch faster than any other commercially developed orbital launch vehicle. Liftoff from New Zealand took place at 6:13 a.m. NZST on Friday, June 21 (2:13 p.m. EDT, 1813 UTC on Thursday, June ...


Newsletter sign-up

Weekly statistics, charts and insights to help you stay on top of the space industry.